User: anonymous   Login
Location: Étavigny
(49.1201°N, 2.9800°E)
Time: 21:12:49
(UTC+00:00)
Language:

deb Kosmos-1275 - Orbit

View from above orbital plane
View from above orbital plane
View from above satellite
View from above satellite

Ground track
Ground track

The orbit data is extracted from the following two-line orbital elements,

1 12669U 81053Z   24062.48485344  .00002209  00000-0  14790-2 0  9991
2 12669  82.9975  95.4406 0079672  83.3821  47.5493 13.98926171147450
Epoch (UTC): 02 March 2024 11:38:11
Eccentricity: 0.0079672
inclination: 82.9975°
perigee height: 839 km
apogee height: 955 km
right ascension of ascending node: 95.4406°
argument of perigee: 83.3821°
revolutions per day: 13.98926171
mean anomaly at epoch: 47.5493°
orbit number at epoch: 14745

The dashed part of the orbit path shows where the satellite is in the earth's shadow,  

DLR